User: anonymous   Login
Location: Altenst�hlen
(53.5567°N, 8.9425°E)
Time: 16:04:30
(UTC+00:00)
Language:

STARLINK-25 - Orbit

View from above orbital plane
View from above orbital plane
View from above satellite
View from above satellite

Ground track
Ground track

The orbit data is extracted from the following two-line orbital elements,

1 44239U 19029E   19343.25002315 -.00026475  00000-0 -15067-2 0  9998
2 44239  53.0077 358.0682 0001777  52.2110 203.7097 15.12143327 30089
Epoch (UTC): 09 December 2019 06:00:02
Eccentricity: 0.0001777
inclination: 53.0077°
perigee height: 528 km
apogee height: 531 km
right ascension of ascending node: 358.0682°
argument of perigee: 52.2110°
revolutions per day: 15.12143327
mean anomaly at epoch: 203.7097°
orbit number at epoch: 3008

The dashed part of the orbit path shows where the satellite is in the earth's shadow,  

DLR